SCP
0 0 0 0 0 0 0 0 0 0 0 0 0 0 0 0 0 0 0 0 0 0
0 0 0 0 0 0 0 0 0 0 0 0 0 0 0 0 0 0 0 0 0 0
0 0 0 0 0 0 0 0 0 0 0 0 0 0 0 0 0 0 0 0 0 0
0 0 0 0 0 0 0 0 0 0 0 0 0 0 0 0 0 0 0 0 0 0
0 0 0 0 0 0 0 0 0 0 0 0 0 0 0 0 0 0 0 0 0 0
-0 0 0 0 0 0 0 0 0 0 0 0 0 0 0 0 0 0 0 0 0 0
0 0 0 0 0 0 0 0 0 0 0 0 0 0 0 0 0 0 0 0 0 0
0 0 0 0 0 0 0 0 0 0 0 0 0 0 0 0 0 0 0 0 0 0
0 0 0 0 0 0 0 0 0 0 0 0 0 0 0 0 0 0 0 0 0 0
0 0 0 0 0 0 0 0 0 0 0 0 0 0 0 0 0 0 0 0 0 0
0 0 0 0 0 0 0 0 0 0 0 0 0 0 0 0 0 0 0 0 0 0
0 0 0 0 0 0 0 0 0 0 0 0 0 0 0 0 0 0 0 0 0 0
0 0 0 0 0 0 0 0 0 0 0 0 0 0 -0 0 0 0 0 0 0 0
0 0 0 0 0 0 0 0 0 0 0 0 0 0 -0 -0 -0 0 0 0 0 0
Wind_Speed_500mb
36 33 25 15 10 4 3 4 6 9 12 10 13 19 26 32 31 33 33 26 17 11
31 30 28 24 18 10 6 12 15 15 17 17 18 18 23 27 33 31 29 24 18 12
26 27 26 24 22 19 12 3 8 15 19 20 21 22 23 25 27 24 25 24 21 17
20 20 21 21 21 18 17 14 11 10 13 20 23 21 24 26 28 26 25 28 23 20
21 22 21 20 19 19 19 17 15 13 12 15 22 24 23 23 27 27 26 26 29 29
25 25 25 23 22 21 20 20 18 18 16 15 17 24 25 23 27 26 30 28 29 32
30 29 29 28 26 25 23 22 21 19 18 18 18 19 24 28 25 27 28 30 28 32
33 32 32 32 30 27 26 25 23 22 20 19 18 19 20 24 27 28 27 27 28 33
38 34 32 32 30 27 24 23 23 23 23 22 20 18 20 22 24 26 27 25 26 30
44 42 36 33 30 27 25 24 25 26 25 25 24 23 21 21 23 23 25 26 25 31
44 45 44 38 32 31 29 26 24 26 27 28 29 28 27 25 23 23 22 25 27 29
41 43 43 45 37 31 30 31 28 25 26 27 29 32 31 28 27 23 19 22 26 26
44 44 42 45 43 36 32 30 31 29 27 27 28 29 33 33 29 24 20 18 22 25
48 48 45 41 47 44 40 37 35 33 29 27 28 29 31 34 35 31 24 16 19 21
Wind_Direction_500mb
54 56 61 50 36 19 316 295 276 254 234 236 244 237 228 230 238 253 252 235 238 242
40 45 49 52 56 49 338 309 277 267 269 263 251 250 250 247 254 259 255 228 235 241
29 26 24 29 32 30 35 14 280 262 267 272 271 263 266 264 260 268 258 232 241 249
13 14 10 5 6 7 7 3 346 317 282 274 279 271 261 258 263 254 261 248 239 249
351 352 353 352 352 347 344 342 340 329 305 283 276 274 268 265 263 265 269 262 255 248
337 343 346 347 345 344 343 340 337 333 326 307 289 287 283 269 270 268 255 259 264 257
319 328 334 339 340 340 338 336 338 338 332 325 309 287 281 278 272 271 269 259 265 264
296 307 320 329 333 336 338 338 338 341 342 335 322 307 288 277 273 268 269 267 258 259
273 285 299 314 322 327 336 343 345 341 339 340 337 324 309 286 272 269 264 263 259 253
276 272 276 291 304 310 315 323 334 344 349 345 340 337 324 313 290 270 266 262 257 252
279 273 268 270 283 295 305 312 323 333 338 347 347 342 336 328 315 289 265 265 259 254
290 277 269 262 268 280 295 298 305 318 328 333 342 348 344 337 328 320 277 255 258 251
295 292 281 257 255 266 281 288 293 301 312 321 328 336 345 343 336 327 311 259 253 252
301 297 293 264 250 256 264 275 283 290 300 309 315 319 329 338 340 332 320 296 256 250
Wind_Speed_850mb
36 33 25 15 10 4 3 4 6 9 12 10 13 19 26 32 31 33 33 26 17 11
31 30 28 24 18 10 6 12 15 15 17 17 18 18 23 27 33 31 29 24 18 12
26 27 26 24 22 19 12 3 8 15 19 20 21 22 23 25 27 24 25 24 21 17
20 20 21 21 21 18 17 14 11 10 13 20 23 21 24 26 28 26 25 28 23 20
21 22 21 20 19 19 19 17 15 13 12 15 22 24 23 23 27 27 26 26 29 29
25 25 25 23 22 21 20 20 18 18 16 15 17 24 25 23 27 26 30 28 29 32
30 29 29 28 26 25 23 22 21 19 18 18 18 19 24 28 25 27 28 30 28 32
33 32 32 32 30 27 26 25 23 22 20 19 18 19 20 24 27 28 27 27 28 33
38 34 32 32 30 27 24 23 23 23 23 22 20 18 20 22 24 26 27 25 26 30
44 42 36 33 30 27 25 24 25 26 25 25 24 23 21 21 23 23 25 26 25 31
44 45 44 38 32 31 29 26 24 26 27 28 29 28 27 25 23 23 22 25 27 29
41 43 43 45 37 31 30 31 28 25 26 27 29 32 31 28 27 23 19 22 26 26
44 44 42 45 43 36 32 30 31 29 27 27 28 29 33 33 29 24 20 18 22 25
48 48 45 41 47 44 40 37 35 33 29 27 28 29 31 34 35 31 24 16 19 21
Wind_Direction_850mb
54 56 61 50 36 19 316 295 276 254 234 236 244 237 228 230 238 253 252 235 238 242
40 45 49 52 56 49 338 309 277 267 269 263 251 250 250 247 254 259 255 228 235 241
29 26 24 29 32 30 35 14 280 262 267 272 271 263 266 264 260 268 258 232 241 249
13 14 10 5 6 7 7 3 346 317 282 274 279 271 261 258 263 254 261 248 239 249
351 352 353 352 352 347 344 342 340 329 305 283 276 274 268 265 263 265 269 262 255 248
337 343 346 347 345 344 343 340 337 333 326 307 289 287 283 269 270 268 255 259 264 257
319 328 334 339 340 340 338 336 338 338 332 325 309 287 281 278 272 271 269 259 265 264
296 307 320 329 333 336 338 338 338 341 342 335 322 307 288 277 273 268 269 267 258 259
273 285 299 314 322 327 336 343 345 341 339 340 337 324 309 286 272 269 264 263 259 253
276 272 276 291 304 310 315 323 334 344 349 345 340 337 324 313 290 270 266 262 257 252
279 273 268 270 283 295 305 312 323 333 338 347 347 342 336 328 315 289 265 265 259 254
290 277 269 262 268 280 295 298 305 318 328 333 342 348 344 337 328 320 277 255 258 251
295 292 281 257 255 266 281 288 293 301 312 321 328 336 345 343 336 327 311 259 253 252
301 297 293 264 250 256 264 275 283 290 300 309 315 319 329 338 340 332 320 296 256 250